Regional Weather Roundup
Issued by NWS

Home | Current Version | Previous Version | Text Only | Print | Product List | Glossary Off
Versions: 1 2 3 4 5 6 7 8 9 10 11 12 13 14 15 16 17 18 19 20 21 22 23 24 25 26 27 28 29 30 31 32 33 34 35 36 37 38 39 40 41 42 43 44 45 46 47 48 49 50

000
ASUS43 KLOT 221406
RWRIL

ILLINOIS REGIONAL WEATHER ROUNDUP
NATIONAL WEATHER SERVICE CHICAGO/ROMEOVILLE IL
800 AM CST SAT NOV 22 2014

NOTE: "FAIR" INDICATES FEW OR NO CLOUDS BELOW 12,000 FEET WITH NO
SIGNIFICANT WEATHER AND/OR OBSTRUCTIONS TO VISIBILITY.

* THESE STATIONS ARE NOT UNDER NWS QUALITY CONTROL. THEY ALSO MAY NOT
  REPORT WEATHER SUCH AS PRECIPITATION OR FOG.

ILZ001-002-007-009-015-016-024-221500-
NORTHWEST ILLINOIS

CITY           SKY/WX    TMP DP  RH WIND       PRES   REMARKS
MOLINE         CLOUDY    43  40  89 S7        29.96F FOG
STERLING*      CLOUDY    39  37  93 CALM      29.99S VSB 1
SAVANNA*       FOG       36  35  96 S6        29.97F VSB 1/4 WCI  31
$$

ILZ003-004-008-010-011-017-018-221500-
NORTH CENTRAL ILLINOIS

CITY           SKY/WX    TMP DP  RH WIND       PRES   REMARKS
ROCKFORD       DRZL/FOG  35  34  96 S8        30.01F VSB 1   WCI  29
FREEPORT*      FOG       34  33  98 S9        29.99S VSB 3/4 WCI  27
ROCHELLE*      FOG       36  36 100 S10       30.00F VSB 3/4 WCI  29
DE KALB*       RAIN      34  34  99 S9        30.00F VSB 1/2 WCI  27
PERU*          CLOUDY    40  39  94 S9        30.02S FOG
$$

ILZ005-006-012>014-019>023-221500-
NORTHEAST ILLINOIS

CITY           SKY/WX    TMP DP  RH WIND       PRES   REMARKS
CHICAGO-OHARE  FOG       37  35  92 SW12      30.01F VSB 1   WCI  29
CHICAGO-MIDWAY CLOUDY    38  36  92 SW12      30.04S FOG     WCI  30
AURORA         FOG       39  36  89 S10       30.02S VSB 1   WCI  32
LANSING*       CLOUDY    37  34  91 S10       30.05F WCI  29
JOLIET*        CLOUDY    38  35  87 S7        30.04S WCI  33
WAUKEGAN       CLOUDY    36  35  96 S12       29.99S FOG     WCI  28
DUPAGE AIRPORT FOG       37  35  92 S10       30.01F VSB 3/4 WCI  30
KANKAKEE*      CLOUDY    39  36  89 S15       30.06F WCI  30
WHEELING       CLOUDY    37  35  92 S10       30.03S FOG     WCI  30
MORRIS*        DRIZZLE   39  37  93 SW9       30.03S WCI  33
ROMEOVILLE*    CLOUDY    38  36  90 SW12      30.03F FOG     WCI  31
NORTHERLY ISL    N/A     37  35  92 S13         N/A  WCI  29
$$

LMZ740>746-221500-
SOUTHERN LAKE MICHIGAN

STATION/POSITION SKY/WX   TEMP    WIND        PRES    VSBY  WAVE
                          AIR SEA DIR/SP/G                  HT/PER
                          (F)     (DEG/KT/KT) (MB)    (MI)  (FT/S)
SOUTHERN BUOY              40 43  210/ 21/ 25 1016.5F         6/ 7
WAUKEGAN HARBOR            37     220/ 12/ 17   N/A
HARRISON CRIB              36     190/ 20/ 24   N/A
BURNHAM HARBOR             37     210/ 10/ 13   N/A
CALUMET HARBOR             37     180/  9/ 16 1016.0F
MICHIGAN CITY              36     170/ 12/ 18   N/A
$$

ILZ025>027-034>036-040-047-049-050-058-095>099-221500-
WEST-CENTRAL ILLINOIS

CITY           SKY/WX    TMP DP  RH WIND       PRES   REMARKS
QUINCY         CLOUDY    48  43  82 S13       30.00F
GALESBURG*     CLOUDY    43  40  89 S10       29.99F
MACOMB*        CLOUDY    43  41  92 S8        30.03S FOG
JACKSONVILLE*  CLOUDY    45  40  81 S12       30.05S
PITTSFIELD*    CLOUDY    47  42  82 S10       30.04S
$$

ILZ028>032-037-038-041>044-048-051>054-059>061-221500-
CENTRAL ILLINOIS

CITY           SKY/WX    TMP DP  RH WIND       PRES   REMARKS
PONTIAC        CLOUDY    42  37  84 S14       30.05F
BLOOMINGTON    CLOUDY    40  37  89 S16       30.06F
DECATUR        CLOUDY    46  39  76 S13       30.09F
PEORIA         CLOUDY    43  38  82 S13       30.03F HAZE
LACON*         CLOUDY    42  37  82 SW7       30.02F HAZE
LINCOLN*       CLOUDY    43  37  79 S14       30.06F
SPRINGFIELD    PTSUNNY   46  39  76 S8        30.07F
TAYLORVILLE    CLOUDY    43  37  81 S15G22    30.09F
$$

ILZ033-039-045-046-055>057-062-063-221500-
EAST-CENTRAL ILLINOIS

CITY           SKY/WX    TMP DP  RH WIND       PRES   REMARKS
CHAMPAIGN      CLOUDY    42  38  85 S12       30.10F
DANVILLE*      CLOUDY    41  36  81 SW15      30.08F
RANTOUL*       CLOUDY    43  39  85 S12       30.09F
MATTOON        LGT RAIN  44  36  73 S13G22    30.12F
PARIS*         LGT RAIN  42  37  80 S16       30.14F
$$

ILZ079-100>102-221500-
SOUTHWEST ILLINOIS

CITY           SKY/WX    TMP DP  RH WIND       PRES   REMARKS
ALTON          PTSUNNY   46  41  81 S15       30.11S
BELLEVILLE     CLOUDY    49  45  87 S8        30.12F
CAHOKIA*       CLOUDY    47  42  83 SE3       30.12S
SPARTA*        CLOUDY    50  43  79 S16G22    30.17R
$$

ILZ064>066-069>071-074>076-080>082-084>086-088>090-092>094-221500-
SOUTH-CENTRAL ILLINOIS

CITY           SKY/WX    TMP DP  RH WIND       PRES   REMARKS
CARBONDALE     CLOUDY    55  44  66 SW16      30.19F
CAIRO*         PTSUNNY   55  44  67 S13       30.23F
EFFINGHAM*     CLOUDY    46  36  69 S8        30.15S
MARION         PTSUNNY   54  43  66 S14       30.21S
MT. VERNON     CLOUDY    50  43  76 S14       30.18F
CENTRALIA*     CLOUDY    50  42  73 S14       30.16S
SALEM*           N/A     52  43  72 S12G17    30.15F
METROPOLIS*    CLOUDY    54  43  66 S6        30.24F
$$

ILZ067-068-072-073-078-083-087-091-221500-
SOUTHEAST ILLINOIS

CITY           SKY/WX    TMP DP  RH WIND       PRES   REMARKS
LAWRENCEVILLE  CLOUDY    46  37  71 S10       30.20F
FLORA*         SUNNY     46  39  76 S8        30.18S
FAIRFIELD*     CLOUDY    51  43  73 S9        30.18F
HARRISBURG*    CLOUDY    55  42  60 S17G23    30.22F
ROBINSON*      CLOUDY    45  36  70 S9        30.19S
CARMI*         CLOUDY    53  44  71 S18G24    30.21S
$$

ABBREVIATIONS USED IN REMARKS
   TC - TEMPERATURE IN CELSIUS
  WCI - WIND CHILL INDEX
   HX - HEAT INDEX
  VSB - VISIBILITY
$$




USA.gov is the U.S. government's official web portal to all federal, state and local government web resources and services.